EW7868 Weather Reports


Display with metric or nautical units.
time (UTC)temp
F
wind
direction
speed
MPH
gust
MPH
rain 1hr
in
rain 24hr
in
rain mn
in
humidity
%
barometer
mb
20260831021412 75 90 0.0 0.0 0.00 0.14 0.14 97 1014.1
20260831020908 75 195 0.0 0.0 0.00 0.14 0.14 97 1014.1
20260831020407 75 195 0.0 0.0 0.00 0.14 0.14 97 1014.1
20260831015902 75 186 0.0 1.0 0.00 0.14 0.14 97 1014.0
20260831015359 75 90 0.0 0.0 0.00 0.14 0.14 97 1013.9
20260831014858 75 81 0.0 0.0 0.00 0.14 0.14 97 1014.0
20260831014353 75 81 0.0 0.0 0.00 0.14 0.14 97 1014.2
20260831013849 75 75 1.0 2.0 0.00 0.14 0.14 97 1014.3
20260831013344 76 90 0.0 1.0 0.02 0.14 0.14 96 1014.3
20260831012838 76 90 0.0 0.0 0.02 0.14 0.14 95 1014.3
20260831012334 76 74 0.0 1.0 0.00 0.13 0.13 95 1014.1
20260831011833 76 185 0.0 0.0 0.05 0.13 0.13 96 1014.0
20260831011328 76 198 0.0 3.0 0.02 0.13 0.13 95 1013.7
20260831010819 76 185 0.0 3.0 0.00 0.13 0.13 95 1013.7
20260831010318 75 180 0.0 2.0 0.00 0.13 0.13 95 1013.7
20260831005814 76 192 2.0 4.0 0.00 0.13 0.13 96 1013.8
20260831005310 75 194 3.0 3.0 0.00 0.13 0.13 95 1013.8
20260831004804 75 195 2.0 3.0 0.02 0.13 0.13 96 1013.4
20260831004301 76 201 2.0 4.0 0.00 0.12 0.12 96 1013.4
20260831003756 76 195 0.0 2.0 0.00 0.12 0.12 95 1013.2
20260831003252 76 180 0.0 1.0 0.00 0.12 0.12 95 1013.5
20260831002751 76 90 0.0 1.0 0.00 0.12 0.12 95 1013.4
20260831002251 76 81 0.0 2.0 0.00 0.12 0.12 95 1013.5
20260831001746 76 90 0.0 1.0 0.00 0.12 0.12 95 1013.9
20260831001241 76 180 0.0 0.0 0.00 0.12 0.12 94 1014.3
20260831000738 76 180 0.0 0.0 0.00 0.12 0.12 94 1014.1
20260831000233 76 180 0.0 0.0 0.00 0.12 0.12 93 1014.0
20260830235732 76 180 0.0 0.0 0.00 0.12 0.12 93 1014.1
20260830235227 77 103 0.0 2.0 0.00 0.12 0.12 93 1013.8
20260830234722 77 180 0.0 2.0 0.00 0.12 0.12 93 1013.6
20260830234218 77 106 0.0 2.0 0.00 0.12 0.12 93 1013.7
20260830233713 77 90 0.0 4.0 0.02 0.12 0.12 92 1013.6
20260830233209 77 90 0.0 2.0 0.02 0.12 0.12 91 1013.7
20260830232704 77 106 1.0 2.0 0.00 0.12 0.12 90 1014.1
20260830232200 77 98 1.0 3.0 0.00 0.12 0.12 89 1014.4
20260830231656 78 90 1.0 1.0 0.00 0.12 0.12 89 1014.1
20260830231155 78 180 0.0 3.0 0.00 0.12 0.12 89 1013.9
20260830230650 78 180 0.0 1.0 0.00 0.12 0.12 89 1014.3
20260830230145 78 194 0.0 0.0 0.00 0.12 0.12 88 1014.4
20260830225640 78 194 0.0 1.0 0.00 0.12 0.12 87 1014.3
20260830225135 78 209 1.0 2.0 0.00 0.12 0.12 88 1014.6
20260830224633 78 82 0.0 0.0 0.00 0.12 0.12 88 1014.5
20260830224124 79 82 0.0 0.0 0.00 0.12 0.12 88 1014.5
20260830223621 79 82 0.0 0.0 0.00 0.12 0.12 88 1014.5
20260830223120 79 82 0.0 0.0 0.00 0.12 0.12 87 1014.7
20260830222615 79 82 0.0 0.0 0.00 0.12 0.12 86 1014.5
20260830222111 79 82 0.0 0.0 0.00 0.12 0.12 85 1014.4
20260830221606 79 82 0.0 0.0 0.00 0.12 0.12 86 1014.6
20260830221102 79 82 0.0 0.0 0.00 0.12 0.12 86 1014.3
20260830220557 79 82 0.0 0.0 0.00 0.12 0.12 86 1014.7
20260830220055 78 84 0.0 2.0 0.00 0.12 0.12 86 1014.2
20260830215549 78 123 0.0 2.0 0.00 0.12 0.12 85 1013.8
20260830215044 79 63 0.0 2.0 0.00 0.12 0.12 85 1013.9
20260830214539 79 337 0.0 1.0 0.00 0.12 0.12 84 1014.0
20260830214033 79 63 1.0 2.0 0.00 0.12 0.12 84 1013.8
20260830213528 79 81 2.0 2.0 0.00 0.12 0.12 84 1013.7
20260830213023 79 294 0.0 0.0 0.00 0.12 0.12 83 1014.3
20260830212519 79 352 0.0 0.0 0.00 0.12 0.12 83 1014.1
20260830212014 79 337 0.0 0.0 0.00 0.12 0.12 83 1014.2
20260830211509 80 216 0.0 2.0 0.00 0.12 0.12 83 1014.3
20260830211003 80 279 0.0 2.0 0.00 0.12 0.12 82 1014.5
20260830210503 80 204 0.0 2.0 0.00 0.12 0.12 83 1014.4
20260830210002 80 201 2.0 3.0 0.00 0.12 0.12 82 1014.4
20260830205500 80 203 3.0 3.0 0.00 0.12 0.12 81 1014.4
20260830204956 80 206 0.0 3.0 0.00 0.12 0.12 82 1014.5
20260830204455 80 212 0.0 2.0 0.00 0.12 0.12 81 1014.4
20260830203949 80 303 0.0 2.0 0.00 0.12 0.12 81 1014.8
20260830203446 80 248 2.0 2.0 0.00 0.12 0.12 81 1014.5
20260830202945 81 251 2.0 2.0 0.00 0.12 0.12 80 1014.8
20260830202440 80 261 1.0 2.0 0.00 0.12 0.12 81 1014.4
20260830201931 80 353 1.0 1.0 0.00 0.12 0.12 83 1014.6
20260830201429 79 340 1.0 2.0 0.00 0.12 0.12 83 1014.7
20260830200926 79 243 2.0 3.0 0.00 0.12 0.12 83 1014.8
20260830200425 79 352 0.0 1.0 0.00 0.12 0.12 83 1014.6
20260830195925 79 0 0.0 2.0 0.00 0.12 0.12 82 1014.6
20260830195421 79 337 2.0 2.0 0.00 0.12 0.12 83 1014.4
20260830194919 79 194 3.0 4.0 0.00 0.12 0.12 83 1014.4
20260830194419 79 0 2.0 5.0 0.00 0.12 0.12 83 1014.3
20260830193918 79 195 5.0 7.0 0.00 0.12 0.12 82 1014.1
20260830193417 79 210 2.0 5.0 0.00 0.12 0.12 84 1014.2
20260830192913 79 193 5.0 6.0 0.00 0.12 0.12 83 1014.0
20260830192408 78 199 4.0 6.0 0.00 0.12 0.12 83 1014.0
20260830191903 78 189 0.0 5.0 0.00 0.12 0.12 86 1014.0
20260830191403 77 173 1.0 6.0 0.02 0.12 0.12 87 1014.1
20260830190859 76 198 4.0 6.0 0.07 0.12 0.12 88 1014.4
20260830190354 77 277 1.0 5.0 0.02 0.11 0.11 86 1014.3
20260830185852 77 186 3.0 5.0 0.00 0.11 0.11 83 1014.2
20260830185348 77 196 6.0 6.0 0.00 0.11 0.11 82 1014.2
20260830184843 78 195 3.0 6.0 0.00 0.11 0.11 82 1014.1
20260830184342 78 195 1.0 6.0 0.00 0.11 0.11 82 1014.1
20260830183837 78 218 4.0 12.0 0.00 0.11 0.11 79 1014.0
20260830183337 79 225 3.0 13.0 0.00 0.11 0.11 78 1013.7
20260830182832 79 199 3.0 6.0 0.00 0.11 0.11 79 1013.5
20260830182328 79 192 6.0 13.0 0.00 0.11 0.11 77 1013.8
20260830181824 80 198 8.0 13.0 0.00 0.11 0.11 77 1013.5
20260830181319 79 199 4.0 11.0 0.00 0.11 0.11 79 1013.5
20260830180818 79 180 4.0 19.0 0.00 0.11 0.11 78 1013.7
20260830180313 79 194 3.0 9.0 0.00 0.11 0.11 78 1013.5
20260830175807 78 198 10.0 11.0 0.00 0.11 0.11 78 1013.8
20260830175305 78 196 3.0 11.0 0.00 0.11 0.11 79 1013.5
20260830174802 78 180 3.0 11.0 0.00 0.11 0.11 79 1013.8
20260830174258 78 203 2.0 14.0 0.00 0.11 0.11 81 1013.7
20260830173757 78 203 3.0 12.0 0.00 0.11 0.11 81 1013.8
20260830173253 77 218 5.0 11.0 0.00 0.11 0.11 82 1013.9
20260830172749 77 248 2.0 18.0 0.00 0.11 0.11 82 1013.8
20260830172246 77 191 8.0 12.0 0.00 0.11 0.11 81 1013.8
20260830171741 76 196 6.0 12.0 0.00 0.11 0.11 83 1013.7
20260830171236 75 199 4.0 11.0 0.00 0.11 0.11 85 1013.9
20260830170731 75 199 5.0 7.0 0.00 0.11 0.11 87 1014.3
20260830170230 74 192 2.0 7.0 0.00 0.11 0.11 87 1014.5
20260830165729 74 199 7.0 9.0 0.00 0.11 0.11 87 1014.5
20260830165225 74 200 5.0 9.0 0.00 0.11 0.11 86 1014.3
20260830164721 74 197 8.0 10.0 0.00 0.11 0.11 86 1014.4
20260830164217 74 196 9.0 11.0 0.00 0.11 0.11 86 1014.7
20260830163714 74 217 5.0 10.0 0.00 0.11 0.11 86 1014.8
20260830163209 73 203 8.0 12.0 0.00 0.11 0.11 87 1014.8
20260830162704 73 202 6.0 9.0 0.00 0.11 0.11 86 1014.7
20260830162159 73 195 4.0 11.0 0.00 0.11 0.11 86 1014.8
20260830161654 73 191 5.0 10.0 0.00 0.11 0.11 86 1014.8
20260830161149 73 148 0.0 10.0 0.00 0.11 0.11 86 1014.8
20260830160645 73 196 5.0 10.0 0.00 0.11 0.11 86 1014.7
20260830160139 73 198 5.0 12.0 0.00 0.11 0.11 85 1014.7
20260830155636 73 202 6.0 8.0 0.00 0.11 0.11 86 1014.5
20260830155131 73 191 5.0 12.0 0.00 0.11 0.11 88 1014.4
20260830154626 73 202 4.0 9.0 0.00 0.11 0.11 88 1014.1
20260830154122 73 203 6.0 8.0 0.00 0.11 0.11 88 1014.1
20260830153619 73 218 3.0 10.0 0.00 0.11 0.11 88 1014.1
20260830153118 73 180 4.0 9.0 0.00 0.11 0.11 90 1014.1
20260830152617 72 200 5.0 8.0 0.00 0.11 0.11 91 1014.5
20260830152117 71 196 5.0 9.0 0.00 0.11 0.11 93 1014.1
20260830151612 70 197 6.0 8.0 0.00 0.11 0.11 95 1013.9
20260830151106 70 200 6.0 9.0 0.02 0.11 0.11 96 1013.9
20260830150601 69 195 6.0 9.0 0.02 0.11 0.11 96 1014.1
20260830150056 69 196 4.0 8.0 0.00 0.10 0.10 96 1014.5
20260830145555 69 94 2.0 11.0 0.00 0.10 0.10 97 1014.6
20260830145050 69 176 4.0 7.0 0.02 0.10 0.10 97 1014.8
20260830144546 70 103 1.0 7.0 0.09 0.10 0.10 97 1014.8
20260830144042 70 199 2.0 7.0 0.09 0.09 0.09 96 1014.5
20260830143537 70 222 3.0 7.0 0.05 0.09 0.09 95 1014.6
20260830143035 69 214 4.0 8.0 0.00 0.08 0.08 94 1014.5
20260830142531 69 203 6.0 7.0 0.00 0.08 0.08 95 1014.4
20260830142026 69 201 4.0 8.0 0.02 0.08 0.08 94 1014.5
20260830141521 69 101 3.0 5.0 0.00 0.07 0.07 94 1014.2
20260830141021 69 210 5.0 7.0 0.00 0.07 0.07 95 1014.7
20260830140521 69 57 2.0 5.0 0.00 0.07 0.07 95 1014.9
20260830140017 69 202 4.0 7.0 0.00 0.07 0.07 95 1015.0
20260830135512 69 202 4.0 7.0 0.00 0.07 0.07 95 1015.1
20260830135007 69 208 4.0 5.0 0.00 0.07 0.07 96 1015.1
20260830134503 68 222 3.0 4.0 0.02 0.07 0.07 97 1015.3
20260830133958 68 61 3.0 4.0 0.07 0.07 0.07 97 1015.6
20260830133454 68 10 3.0 6.0 0.07 0.07 0.07 97 1015.8
20260830132948 68 90 0.0 3.0 0.05 0.06 0.06 97 1015.9
20260830132444 68 202 2.0 3.0 0.05 0.06 0.06 97 1015.8
20260830131943 68 201 2.0 4.0 0.05 0.06 0.06 96 1016.0
20260830131437 68 8 0.0 3.0 0.07 0.05 0.05 96 1016.0
20260830130932 68 180 0.0 3.0 0.07 0.05 0.05 96 1016.1
20260830130428 68 180 0.0 2.0 0.05 0.04 0.04 96 1016.4
20260830125926 68 192 0.0 3.0 0.05 0.04 0.04 95 1016.1
20260830125422 68 196 0.0 3.0 0.02 0.03 0.03 94 1016.0
20260830124920 68 201 2.0 2.0 0.00 0.03 0.03 94 1015.9
20260830124415 69 201 2.0 2.0 0.00 0.03 0.03 93 1016.2
20260830123912 69 180 0.0 0.0 0.00 0.03 0.03 92 1016.2
20260830123408 69 180 0.0 0.0 0.00 0.03 0.03 92 1016.2
20260830122906 69 206 2.0 2.0 0.00 0.03 0.03 92 1016.1
20260830122400 69 340 0.0 2.0 0.00 0.03 0.03 91 1015.9
20260830121855 69 210 2.0 3.0 0.00 0.03 0.03 90 1015.8
20260830121355 69 207 3.0 4.0 0.00 0.03 0.03 90 1015.7
20260830120850 69 197 3.0 4.0 0.00 0.03 0.03 90 1015.2
20260830120346 69 201 3.0 6.0 0.00 0.03 0.03 90 1015.2
20260830115842 70 199 3.0 4.0 0.00 0.03 0.03 89 1015.1
20260830115338 70 206 4.0 9.0 0.00 0.03 0.03 89 1014.8
20260830114833 69 195 2.0 6.0 0.00 0.03 0.03 89 1014.9
20260830114330 69 109 2.0 5.0 0.00 0.03 0.03 90 1014.5
20260830113825 69 191 3.0 5.0 0.00 0.03 0.03 91 1014.6
20260830113319 69 201 3.0 5.0 0.00 0.03 0.03 92 1014.4
20260830112815 69 194 2.0 5.0 0.00 0.03 0.03 92 1014.3
20260830112311 69 180 2.0 4.0 0.00 0.03 0.03 92 1014.3
20260830111807 69 192 2.0 3.0 0.02 0.03 0.03 93 1014.2
20260830111303 69 194 3.0 3.0 0.02 0.03 0.03 93 1014.2
20260830110802 69 11 2.0 7.0 0.00 0.02 0.02 92 1014.2
20260830110259 69 196 2.0 5.0 0.00 0.02 0.02 93 1014.3
20260830105758 69 194 0.0 4.0 0.00 0.02 0.02 93 1014.2
20260830105254 69 83 0.0 3.0 0.00 0.02 0.02 92 1013.9
20260830104750 69 195 3.0 4.0 0.00 0.02 0.02 92 1014.0
20260830104247 68 196 0.0 5.0 0.02 0.02 0.02 92 1013.9
20260830103745 68 197 3.0 8.0 0.12 0.02 0.02 92 1014.1
20260830103242 69 208 3.0 6.0 0.12 0.02 0.02 91 1014.3
20260830102739 70 210 4.0 7.0 0.02 0.00 0.00 88 1013.9
20260830102236 70 192 4.0 13.0 0.00 0.00 0.00 87 1013.8
20260830101732 70 197 3.0 13.0 0.00 0.00 0.00 86 1013.6
20260830101227 71 199 7.0 19.0 0.00 0.00 0.00 83 1013.6
20260830100720 71 195 6.0 14.0 0.00 0.00 0.00 83 1013.5
20260830100214 71 195 5.0 7.0 0.00 0.00 0.00 84 1013.6
20260830095713 71 186 3.0 5.0 0.00 0.00 0.00 83 1013.5
20260830095210 71 201 5.0 7.0 0.00 0.00 0.00 82 1013.7
20260830094705 71 198 2.0 5.0 0.00 0.00 0.00 83 1013.6
20260830094201 71 215 5.0 5.0 0.00 0.00 0.00 83 1013.6
20260830093656 71 208 3.0 6.0 0.00 0.00 0.00 83 1013.8
20260830093152 71 201 4.0 8.0 0.00 0.00 0.00 83 1013.9
20260830092652 71 20 1.0 7.0 0.00 0.00 0.00 82 1013.8
20260830092149 71 189 6.0 12.0 0.00 0.00 0.00 83 1013.7
20260830091644 71 216 2.0 6.0 0.00 0.00 0.00 82 1013.8
20260830091143 71 214 3.0 5.0 0.00 0.00 0.00 82 1013.8
20260830090638 71 207 4.0 4.0 0.00 0.00 0.00 82 1013.8
20260830090133 71 203 0.0 6.0 0.00 0.00 0.00 81 1014.0
20260830085632 71 194 7.0 7.0 0.00 0.00 0.00 81 1013.7
20260830085129 71 200 5.0 9.0 0.00 0.00 0.00 81 1013.5
20260830084624 71 212 2.0 9.0 0.00 0.00 0.00 81 1013.6
20260830084119 71 197 3.0 9.0 0.00 0.00 0.00 81 1013.7
20260830083614 71 187 3.0 9.0 0.00 0.00 0.00 81 1013.7
20260830083114 71 190 4.0 9.0 0.00 0.00 0.00 81 1013.7
20260830082609 71 265 2.0 6.0 0.00 0.00 0.00 81 1013.6
20260830082105 71 203 4.0 5.0 0.00 0.00 0.00 80 1013.9
20260830081601 71 90 0.0 5.0 0.00 0.00 0.00 80 1013.9
20260830081059 71 180 2.0 8.0 0.00 0.00 0.00 79 1014.1
20260830080554 72 180 2.0 9.0 0.00 0.00 0.00 79 1013.8
20260830080049 72 189 5.0 10.0 0.00 0.00 0.00 78 1014.0
20260830075544 72 195 3.0 7.0 0.00 0.00 0.00 78 1013.9
20260830075039 72 188 0.0 7.0 0.00 0.00 0.00 78 1013.9
20260830074536 72 194 3.0 11.0 0.00 0.00 0.00 78 1014.1
20260830074031 72 180 1.0 5.0 0.00 0.00 0.00 78 1014.1
20260830073527 72 200 6.0 8.0 0.00 0.00 0.00 77 1014.3
20260830073022 72 206 1.0 9.0 0.00 0.00 0.00 76 1014.1
20260830072517 72 188 0.0 8.0 0.00 0.00 0.00 76 1014.1
20260830072017 72 207 6.0 6.0 0.00 0.00 0.00 75 1014.0
20260830071513 72 187 7.0 8.0 0.00 0.00 0.00 74 1014.1
20260830071010 73 214 8.0 10.0 0.00 0.00 0.00 74 1014.1
20260830070506 73 188 4.0 8.0 0.00 0.00 0.00 74 1014.2
20260830070005 73 211 7.0 11.0 0.00 0.00 0.00 74 1014.3
20260830065504 72 200 1.0 10.0 0.00 0.00 0.00 75 1014.3
20260830065002 73 211 8.0 12.0 0.00 0.00 0.00 74 1014.3
20260830064458 72 208 5.0 9.0 0.00 0.00 0.00 75 1014.4
20260830063953 72 186 3.0 6.0 0.00 0.00 0.00 74 1014.4
20260830063453 72 206 7.0 11.0 0.00 0.00 0.00 74 1014.6
20260830062951 73 180 3.0 15.0 0.00 0.00 0.00 74 1014.4
20260830062451 72 62 0.0 13.0 0.00 0.00 0.00 74 1014.5
20260830061946 73 183 5.0 11.0 0.00 0.00 0.00 74 1014.7
20260830061441 73 206 2.0 10.0 0.00 0.00 0.00 74 1014.7
20260830060937 73 201 3.0 9.0 0.00 0.00 0.00 74 1014.7
20260830060434 73 87 3.0 11.0 0.00 0.00 0.00 74 1014.5
20260830055929 73 189 5.0 11.0 0.00 0.00 0.00 74 1014.6
20260830055425 73 206 8.0 15.0 0.00 0.00 0.00 74 1014.8
20260830054920 73 201 5.0 11.0 0.00 0.00 0.00 75 1014.6
20260830054416 73 192 5.0 15.0 0.00 0.00 0.00 75 1014.8
20260830053911 73 206 3.0 7.0 0.00 0.00 0.00 75 1014.7
20260830053407 73 199 5.0 10.0 0.00 0.00 0.00 76 1014.7
20260830052906 73 90 1.0 9.0 0.00 0.00 0.00 76 1014.6
20260830052401 73 194 6.0 6.0 0.00 0.00 0.00 77 1014.8
20260830051856 73 204 0.0 2.0 0.00 0.00 0.00 78 1014.9
20260830051352 73 195 7.0 8.0 0.00 0.00 0.00 77 1015.0
20260830050850 73 262 1.0 4.0 0.00 0.00 0.00 78 1014.8
20260830050346 72 198 0.0 5.0 0.00 0.00 0.00 78 1015.0
20260830045844 73 191 0.0 6.0 0.00 0.00 0.00 78 1015.3
20260830045339 72 191 5.0 7.0 0.00 0.00 0.00 78 1015.3
20260830044838 72 234 1.0 2.0 0.00 0.00 0.00 79 1015.6
20260830044335 72 199 5.0 5.0 0.00 0.00 0.00 79 1015.3
20260830043829 72 197 6.0 6.0 0.00 0.00 0.00 80 1015.2
20260830043324 72 53 0.0 3.0 0.00 0.00 0.00 80 1015.2
20260830042821 72 61 0.0 5.0 0.00 0.00 0.00 79 1015.2
20260830042316 73 212 3.0 6.0 0.00 0.00 0.00 79 1015.4
20260830041815 72 206 0.0 7.0 0.00 0.00 0.00 80 1015.4
20260830041315 72 196 3.0 3.0 0.00 0.00 0.00 80 1015.1
20260830040810 72 186 3.0 6.0 0.00 0.00 0.00 81 1015.2
20260830040307 72 168 2.0 6.0 0.00 0.00 0.00 82 1015.1
20260830035805 72 63 0.0 3.0 0.00 0.00 0.00 82 1015.1
20260830035259 72 180 0.0 7.0 0.00 0.00 0.00 82 1015.1
20260830034755 72 32 2.0 4.0 0.00 0.00 0.00 83 1015.3
20260830034254 72 203 4.0 6.0 0.00 0.00 0.00 84 1015.3
20260830033750 72 180 1.0 5.0 0.00 0.00 0.00 84 1015.3
20260830033250 72 106 1.0 5.0 0.00 0.00 0.00 84 1015.4
20260830032745 72 191 0.0 6.0 0.00 0.00 0.00 84 1015.3
20260830032239 72 90 0.0 6.0 0.00 0.00 0.00 84 1015.6
20260830031734 72 90 1.0 6.0 0.00 0.00 0.00 84 1015.4
20260830031229 72 239 2.0 5.0 0.00 0.00 0.00 85 1015.1
20260830030725 72 215 0.0 8.0 0.00 0.00 0.00 84 1015.3
20260830030221 72 60 0.0 7.0 0.00 0.00 0.00 84 1015.4
20260830025720 72 191 3.0 5.0 0.00 0.00 0.00 84 1015.3
20260830025219 72 189 0.0 4.0 0.00 0.00 0.00 84 1015.2
20260830024714 72 105 1.0 6.0 0.00 0.00 0.00 84 1015.3
20260830024209 72 194 1.0 3.0 0.00 0.00 0.00 85 1015.4
20260830023706 72 173 0.0 7.0 0.00 0.00 0.00 85 1015.4
20260830023201 72 180 0.0 5.0 0.00 0.00 0.00 84 1015.6
20260830022700 72 90 0.0 4.0 0.00 0.00 0.00 85 1015.3
20260830022155 72 218 3.0 5.0 0.00 0.00 0.00 84 1015.3